Location: Unspecified
(28.3832°N, 0.0000°E)
Time: 04:18:18
(UTC+00:00)

Explorer 7 - Visible Passes

Search period start: 04 April 2026 00:00
Search period end: 14 April 2026 00:00
Orbit: 429 x 539 km, 50.2° (Epoch: 29 March)

Date Brightness Start Highest point End Pass type
(mag) Time Alt. Az. Time Alt. Az. Time Alt. Az.
4 Apr 9.4 03:24:55 16° ENE 03:24:55 16° ENE 03:26:16 10° E visible
4 Apr 7.2 04:59:17 13° WNW 05:02:00 31° SW 05:05:05 10° SSE visible
4 Apr 7.9 20:13:03 10° WSW 20:16:53 40° NW 20:17:34 37° NNW visible
5 Apr 7.0 04:35:00 35° SW 04:35:00 35° SW 04:38:09 10° SSE visible
5 Apr 7.8 19:45:54 10° WSW 19:49:48 44° NW 19:53:12 13° NNE visible
6 Apr 8.9 04:10:56 12° SSE 04:10:56 12° SSE 04:11:11 10° SSE visible
6 Apr 7.7 19:18:44 10° WSW 19:22:41 48° NW 19:26:35 10° NNE visible
7 Apr 7.6 18:51:33 10° WSW 18:55:32 53° NW 18:59:30 10° NE visible
10 Apr 9.9 19:11:54 10° NW 19:12:51 11° NNW 19:13:48 10° NNW visible
11 Apr 9.8 18:44:10 10° NW 18:45:33 11° NNW 18:46:55 10° N visible
